Regional Weather Roundup
Issued by NWS Bismarck, ND

Home | Current Version | Previous Version | Text Only | Print | Product List | Glossary On
Versions: 1 2 3 4 5 6 7 8 9 10 11 12 13 14 15 16 17 18 19 20 21 22 23 24 25 26 27 28 29 30 31 32 33 34 35 36 37 38 39 40 41 42 43 44 45 46 47 48 49 50
000
ASUS43 KBIS 210710
RWRBIS

NWR BROADCAST TEXT
NATIONAL WEATHER SERVICE BISMARCK ND
100 AM CST SUN JAN 21 2018

NOTE: "FAIR" INDICATES FEW OR NO CLOUDS BELOW 12,000 FEET WITH NO
SIGNIFICANT WEATHER AND/OR OBSTRUCTIONS TO VISIBILITY.


CITY           SKY/WX    TMP DP  RH WIND       PRES   REMARKS
WILLISTON      FAIR      17  13  84 CALM      29.97R
MINOT          FAIR      23  17  78 W7        29.95S WCI  15
MINOT AFB      CLEAR     17  13  87 W8        29.94S WCI   6
BISMARCK       FAIR      24  20  84 SW5       29.99R WCI  18
DICKINSON      FAIR      22  17  81 W12       29.94S WCI  10
GARRISON         N/A     18  15  88 CALM      29.96R
HETTINGER ARPT MOCLDY    23  19  85 NW6       29.98F WCI  16
JAMESTOWN      FAIR      27  23  85 W5        29.95R
CARRINGTON     FAIR      27  23  86 W9        29.97S WCI  17
LINTON           N/A     27  23  86 NW5       29.98F
OAKES            N/A     30  28  93 W6        29.97S
TIOGA          FAIR      14  14 100 NW5       29.96S WCI   6
$$

CITY           SKY/WX    TMP DP  RH WIND       PRES   REMARKS
GRAND FORKS    FAIR      20  18  92 W6        29.95R WCI  12
GRAND FORKS AF FAIR      24  21  87 NW5       29.95R WCI  18
DEVILS LAKE    FAIR      19  17  92 W8        29.96R WCI   9
FARGO          FAIR      28  26  92 W6        29.96R
CANDO          FAIR      18  18 100 NW8       29.96S WCI   7
CAVALIER         N/A     27  23  86 NW10      29.94R WCI  17
GWINNER          N/A     32  28  86 W6        29.96S
ROLLA          FAIR      18  18 100 W6        29.94R WCI   9
WALHALLA       FAIR      23  23 100 NW8       29.95R WCI  14
$$

CITY           SKY/WX    TMP DP  RH WIND       PRES   REMARKS
ABERDEEN       CLOUDY    32  29  88 NW5       29.97F
MOBRIDGE       CLOUDY    34  27  75 NW7       29.94F
BUFFALO          N/A     28  20  71 W6        29.90S
RAPID CITY     CLOUDY    29  27  92 NW8       29.97F
GLASGOW        CLEAR     19  15  84 S5        29.95R WCI  12
SIDNEY         CLEAR     20  17  88 CALM      29.98S
WOLF POINT     CLEAR      7   3  84 NW3       29.98R
GLENDIVE       CLEAR     19  15  84 S5        29.98S WCI  12
MILES CITY     PTCLDY    11  10  96 W6        30.00R WCI   1
BAKER          PTCLDY    16  13  88 SW3       29.98S
$$

CITY           SKY/WX    TMP DP  RH WIND       PRES   REMARKS
BILLINGS       PTCLDY    25  16  68 SW10      29.99R WCI  15
GREAT FALLS    CLEAR     26  18  71 SW12      29.96R WCI  16
REGINA         CLEAR     16  12  86 E5        29.93R WCI   9
ESTEVAN        CLEAR      9   7  92 SW6       29.94S WCI  -1
$$





USA.gov is the U.S. government's official web portal to all federal, state and local government web resources and services.